xi-an , China , ASIA

  • Tuesday
    September 26

    Moderate rain  Moderate rain

    68 °F  61 °F

    Southwest  Southwest

    3~4L    

  • Wednesday
    September 27

    Moderate rain  Sunny

    66 °F  52 °F

    Southwest  Southeast

        

  • Thursday
    September 28

    Cloudy  Overcast

    73 °F  57 °F

    Northeast  East

    3~4L    

  • Friday
    September 29

    Cloudy  Cloudy

    75 °F  63 °F

    Southwest  Northeast

        

  • Saturday
    September 30

    Light rain  Light rain

    75 °F  59 °F

    Northeast  Northeast

        

  • Sunday
    October 1

    Overcast  Light rain

    73 °F  59 °F

    Southwest  Southwest

        

  • Monday
    October 2

    Cloudy  Cloudy

    73 °F  57 °F

    Southwest  Northeast

        

Date   Weather Temperature Humidity Total_rain Visibility Wind
11:00 Light rain 67°F 87.8% 0.8mm 999.9km Northwest  0.3m/s
14:00 Moderate rain 68°F 88.4% 3.3mm 8km Northwest  0.6m/s
17:00 Moderate rain 65°F 88.9% 5.2mm 999.9km Northwest  1.0m/s
20:00 Light rain 65°F 91.3% 0.9mm 4km Northwest  1.4m/s
23:00 Light rain 64°F 94.8% 2.6mm 999.9km Northwest  1.3m/s
02:00 Light rain 62°F 95.1% 2.3mm 999.9km Northwest  1.1m/s
05:00 Light rain 62°F 94.8% 2.9mm 999.9km Northwest  1.3m/s
08:00 Light rain 61°F 93.6% 2.1mm 4km Northwest  1.7m/s
11:00 Heavy rain 67°F 80.5% 11.2mm 999.9km Northwest  2.4m/s
14:00 Moderate rain 66°F 81.3% 3.7mm 12km Northwest  1.3m/s
17:00 Moderate rain 59°F 81.5% 8.6mm 999.9km Northeast  0.8m/s
20:00 Light rain 59°F 85.1% 0.4mm 12km Northwest  0.8m/s
23:00 Sunny 59°F 89.4% 0mm 999.9km Northwest  0.9m/s
02:00 Sunny 55°F 89.8% 0mm 999.9km Northwest  1.0m/s
05:00 Sunny 53°F 89% 0mm 999.9km Northwest  1.3m/s
08:00 Sunny 54°F 81.2% 0mm 12km Northeast  0.6m/s
11:00 Cloudy 68°F 62.5% 0mm 999.9km Northeast  0.9m/s
14:00 Cloudy 73°F 61.4% 0mm 8km Southeast  1.5m/s
17:00 Cloudy 71°F 63.1% 0mm 999.9km Southeast  1.4m/s
20:00 Cloudy 62°F 82.9% 0mm 12km Northeast  1.2m/s
23:00 Overcast 60°F 84.9% 0mm 999.9km Northeast  0.7m/s
02:00 Overcast 60°F 85.8% 0mm 999.9km Southeast  0.7m/s
05:00 Overcast 58°F 87.4% 0mm 999.9km Northeast  0.7m/s
08:00 Overcast 59°F 87.5% 0mm 8km Northeast  0.8m/s
11:00 Cloudy 71°F 64.3% 0mm 999.9km Southeast  0.7m/s
14:00 Cloudy 75°F 65.7% 0mm 8km Southeast  1.1m/s
17:00 Cloudy 75°F 78.2% 0mm 999.9km Southeast  1.3m/s
20:00 Cloudy 70°F 82.5% 0mm 8km Southeast  0.9m/s
23:00 Cloudy 68°F 84.7% 0mm 999.9km Southwest  0.7m/s
02:00 Cloudy 66°F 85.9% 0mm 999.9km Northeast  0.3m/s
05:00 Cloudy 64°F 87.6% 0mm 999.9km Northeast  0.6m/s
08:00 Cloudy 65°F 87.8% 0mm 12km Northeast  0.5m/s
11:00 Light rain 71°F 68.2% 0.1mm 999.9km Southeast  0.7m/s
14:00 Light rain 76°F 68.2% 0.2mm 8km Southeast  0.9m/s
17:00 Light rain 75°F 85.5% 0.1mm 999.9km Southeast  1.2m/s
20:00 Cloudy 66°F 88% 0mm 8km Northeast  0.8m/s
23:00 Overcast 65°F 90.4% 0mm 999.9km Southeast  1.3m/s
02:00 Light rain 63°F 94.9% 1.1mm 999.9km Northeast  0.5m/s
05:00 Moderate rain 61°F 94% 6mm 999.9km Northeast  1.0m/s
08:00 Light rain 61°F 80.7% 1.2mm 8km Northeast  0.5m/s
11:00 Overcast 67°F 69.8% 0mm 999.9km Northwest  1.3m/s
14:00 Overcast 73°F 72.2% 0mm 12km Southwest  1.4m/s
17:00 Overcast 69°F 77.1% 0mm 999.9km Southwest  0.7m/s
20:00 Overcast 64°F 82% 0mm 8km Northwest  2.6m/s
23:00 Overcast 63°F 81% 0mm 999.9km Northwest  1.4m/s
02:00 Light rain 63°F 83.4% 2.6mm 999.9km Northwest  1.9m/s
05:00 Overcast 62°F 77.9% 0mm 999.9km Northwest  1.0m/s
08:00 Light rain 61°F 73.4% 1.1mm 12km Northwest  1.8m/s
11:00 Cloudy 74°F 62.7% 0mm 999.9km Northeast  2.2m/s
14:00 Cloudy 67°F 60.7% 0mm 8km Northwest  0.9m/s
17:00 Cloudy 59°F 74.3% 0mm 999.9km Southeast  1.6m/s
20:00 Cloudy 58°F 75.7% 0mm 8km Northwest  1.3m/s
23:00 Cloudy 58°F 77.1% 0mm 999.9km Southeast  2.3m/s
02:00 Cloudy 61°F 77.8% 0mm 999.9km Southeast  2.6m/s
05:00 Cloudy 64°F 83% 0mm 999.9km Southeast  2.5m/s